This is the latest recevied weather packets stored in our database for station/object OK2JF-6. If no packets are shown the sender has not sent any weather packets the latest 10 day(s).
| Time | Temp. | Humidity | Pressure | Rain* | Wind** | Luminosity | Snow |
|---|---|---|---|---|---|---|---|
| 1777806783 | 23.33° C | 35% | 1089.8 hPa | 0 mm | - | 498 W/m² | - |
| 1777806663 | 23.33° C | 35% | 1089.6 hPa | 0 mm | - | 489 W/m² | - |
| 1777806183 | 23.33° C | 35% | 1089.8 hPa | 0 mm | - | 498 W/m² | - |
| 1777805943 | 23.33° C | 36% | 1090 hPa | 0 mm | - | 504 W/m² | - |
| 1777805838 | 23.33° C | 36% | 1090.1 hPa | 0 mm | - | 492 W/m² | - |
| 1777805523 | 23.33° C | 37% | 1089.8 hPa | 0 mm | - | 509 W/m² | - |
| 1777804503 | 23.33° C | 35% | 1090.2 hPa | 0 mm | - | 514 W/m² | - |
| 1777804263 | 23.33° C | 36% | 1090.3 hPa | 0 mm | - | 511 W/m² | - |
| 1777803783 | 23.33° C | 37% | 1090.2 hPa | 0 mm | - | 508 W/m² | - |
| 1777803603 | 23.33° C | 36% | 1090.3 hPa | 0 mm | - | 508 W/m² | - |
| 1777803543 | 23.33° C | 36% | 1090.4 hPa | 0 mm | - | 508 W/m² | - |
| 1777802943 | 22.78° C | 37% | 1090.6 hPa | 0 mm | - | 505 W/m² | - |
| 1777802763 | 22.78° C | 37% | 1090.4 hPa | 0 mm | - | 504 W/m² | - |
| 1777802103 | 22.78° C | 37% | 1090.6 hPa | 0 mm | - | 498 W/m² | - |
| 1777801683 | 22.78° C | 38% | 1090.8 hPa | 0 mm | - | 494 W/m² | - |
| 1777801563 | 22.78° C | 38% | 1090.4 hPa | 0 mm | - | 492 W/m² | - |
| 1777800603 | 22.22° C | 38% | 1090.8 hPa | 0 mm | - | 459 W/m² | - |
| 1777800303 | 22.22° C | 38% | 1090.8 hPa | 0 mm | - | 452 W/m² | - |
| 1777800198 | 22.22° C | 38% | 1090.9 hPa | 0 mm | - | 186 W/m² | - |
| 1777800184 | 22.22° C | 38% | 1090.9 hPa | 0 mm | - | 179 W/m² | - |
| 1777800018 | 22.22° C | 38% | 1090.8 hPa | 0 mm | - | 305 W/m² | - |
| 1777799823 | 22.22° C | 38% | 1090.9 hPa | 0 mm | - | 343 W/m² | - |
| 1777799778 | 22.22° C | 38% | 1090.7 hPa | 0 mm | - | 422 W/m² | - |
| 1777799283 | 22.78° C | 37% | 1090.9 hPa | 0 mm | - | 462 W/m² | - |
| 1777799168 | 22.78° C | 38% | 1090.9 hPa | 0 mm | - | 460 W/m² | - |
* Rain latest hour (hover to see other rain measurements)
** Current wind speed in m/s (hover to see current wind gust speed)